Showing default

EXCITE, 43819

Orbit data source: Space-Track

EXCITE, 43819 is a payload satellite owned by DARPA (US) in SSO that was launched on Mon, 03 Dec 2018 UTC via an FALCON 9 launch vehicle from the Air Force Western Test Range (AFWTR). Payload-class satellites include a variety of spacecraft equipped with specific instruments for various scientific and technological missions. These include communications satellites like Starlink; space stations such as the ISS; scientific satellites like the Hubble; Earth observation satellites from companies like Planet Labs, Umbra, and HawkEye 360; GPS; miniature CubeSats for education and research; and military/defense satellites.

Loading next visibility...
Identifier
43819, 2018-099BP
Orbit
SSO
Country
Flag of USUS
Related business
Manufacturer
NovaWurks
Mission
Operational Defense Technology
Bus & Motor
HISAT, Unknown motor
Mass
~155 kg wet, ~155 kg dry
Launch date (UTC)
2018-12-03 (7 years ago)
Launch vehicle
FALCON 9
Launch site
Air Force Western Test Range (AFWTR)
Object type
Payload
Rocket body
Debris
Shape & HBR
Box, 0.5 m
Radar Cross Section
1.500 m², Medium (>0.1 m² and < 1m²)

Expand to show TLE details & history
Last TLE update: 13 hours ago

TLE from 13 hours ago
0 EXCITE
1 43819U 18099BP  26034.54485911  .00003181  00000-0  22243-3 0  9993
2 43819  97.4157  78.5157 0020041  89.1096 271.2427 15.05822028391633
Epoch: 2026-02-03T13:04Z
TLE epoch observation values (Epoch: 2026-02-03T13:04:35.827Z)
Latitude
-0.00005°
Longitude
108.64217°
Altitude
551.781 km
Speed
7.586 km/s
True Right ascension
05h 14m 03s
True Declination
0° 00' 00"
Sunlit
Object was in full shadow at epoch
Visualization orbit readout
Latitude
Unknown
Longitude
Unknown
Altitude
Unknown
Speed
Unknown
Apparent Right ascension
Unknown
Apparent Declination
Unknown
Sunlit
N/A
Visualization observer readout
Local Sidereal Time
03:32:43
Azimuth
Unknown
Elevation
Unknown
Doppler factor
Unknown
Orbital elements
Apogee altitude
559.845 km
Perigee altitude
532.092 km
Semi-major axis
6,924.106 km
Eccentricity
0.002
Inclination
97.4157°
RAAN
78.5157°
Arg. of periapsis
89.1096°
True anomaly
271.01309°
Mean anomaly
271.2427°
Eccentric anomaly
271.1279°
Mean motion
3.76702 °/min
Orbital period
95.57 mins
BSTAR
0.00022243
Loading maneuver chart data...
Computing Atmospheric mass density...
Loading historical data...
Loading historical data...
Loading historical data...
Loading historical data...
Loading historical data...
Loading historical data...
Loading historical data...

Documentation

Showing up to 5 results
|